Simultaneous Nadir Overpasses (SNOs) Predictions

Prediction of SNOs between GOES-15 and METOP-A Satellite Orbit:

Table of predicted SNOs for the next 14.0 days since TLE Epoch: 2/28/2014
Index Date Time (GOES-15) GOES-15 Lat,Lon METOP-A Lat,Lon Distance(km) Time Diff (sec)
1 02/28/2014 18:14:06 0.06,-135.09 -0.70,-131.75 380.86 80
2 03/02/2014 06:35:45 -0.07,-135.00 -0.36,-136.35 153.30 80
3 03/03/2014 06:12:25 -0.06,-134.97 0.72,-131.34 412.59 80
4 03/04/2014 18:31:15 0.07,-134.97 0.30,-135.90 106.67 80
5 03/05/2014 18:13:15 0.06,-134.94 -0.84,-130.92 458.98 80
6 03/07/2014 06:32:15 -0.06,-134.84 -0.20,-135.51 76.05 80
7 03/08/2014 06:08:54 -0.06,-134.80 0.89,-130.51 489.22 80
8 03/09/2014 18:27:44 0.06,-134.80 0.12,-135.07 30.98 80
9 03/12/2014 06:26:03 -0.05,-134.65 -0.05,-134.66 1.72 80




NCC Satellite Simultaneous Nadir Overpasses (SNOs) Prediction Service
